sat.trackr.live / text

‹ back to catalog

STARLINK-37111

NORAD 68381 · 2026-063B

PAYLOAD ACTIVE UNKNOWN

§ Identity

Operator
Country
US
Launch date
2026-03-26
Launch site
AFWTR
Launch vehicle
Mass (kg)
RCS (m²)

Purposes: comms

External: N2YO · Heavens-Above · Gunter

§ Orbital elements

Epoch: 2026-09-19T09:02:22.939296Z

Period
93.91 min
Inclination
97.2849°
Eccentricity
0.0001379
Mean motion
15.33448021 rev/d
Perigee alt
464.6 km
Apogee alt
466.5 km
Semi-major
6,843.7 km
B*
3.6623e-4
RAAN
43.2123°
Arg perigee
90.4793°
Mean anomaly
269.6608°
Rev number
2,757

§ Raw data

STARLINK-371111 68381U 26063B   26262.37665439  .00011768  00000+0  36623-3 0  99992 68381  97.2849  43.2123 0001379  90.4793 269.6608 15.33448021 27573

JSON: /api/v1/satellites/68381 · /tle

For live sub-satellite position, see the globe view (requires WebGL).

§ Visibility from observer

Set your observer location to see the next 7 days of passes ≥ 10°. The values pass through the URL so the page stays shareable.

No JS? Fill the form by hand. The geolocation button needs JavaScript.